Live-Position
3D-Globus wird geladen...
Über Starlink 31959
Group: 3 satellites
Beschreibung wird geladen...
Nächste Überflüge
Passes for default location (London). Set your location on the main map for personalized predictions.
Höhenverlauf
Loading altitude history...
No altitude history available
Zweizeiliger Elementsatz
1 59925U 24106D 26124.70859310 .00002135 00000-0 87084-4 0 9993
2 59925 43.0005 12.3212 0000465 275.3819 84.6979 15.27569616109130
Epoch: 4. Mai 2026 •
Age: 9 hours
Aktueller Status
Höhe 494.2 km
Geschwindigkeit 7.62 km/s
Subsatellitenpunkt -38.30°S,
4.14°W
Startdatum 1. Juni 2024
Alter 1.9 years
Typ internet
Startgruppe
Falcon 9 •
Group 6-64 •
22 satellites
Starlink 31872
59922
Starlink 31972 59923
Starlink 31958 59924
Starlink 31957 59926
Starlink 31968 59927
Starlink 31970 59928
Starlink 31932 59929
Starlink 31956 59930
Starlink 31960 59931
Starlink 31432 59932
Starlink 31853 59933
Starlink 31971 59934
Starlink 31962 59936
Starlink 31879 59937
Starlink 31876 59938
Starlink 31955 59939
Starlink 31946 59940
Starlink 31948 59941
Starlink 31900 59942
Starlink 31973 59943
...and 1 more
Technische Details
Klassifizierung Payload
Masse 730.00 kg
Trockenmasse 700.00 kg
Gesamtmasse 730.00 kg
Länge 0.30 m
Durchmesser 4.10 m
Spannweite 29.00 m
Form Box + pan
Hersteller SPXS
Bus-Typ Starlink V2M
Phasenstatus In Orbit
Besitzer/Staat SPXS/US
Most Searched
Loading...